{"data":{"norad_id":52792,"epoch":"2026-09-20T23:02:18.246624Z","epoch_age_seconds":91651,"freshness":"FRESH","line1":"1 52792U 22058H   26263.95993341  .00000770  00000+0  12517-3 0  9996","line2":"2 52792  49.9929 119.1629 0019428 297.4483  62.4479 14.81609202234137","mean_motion":14.81609202,"eccentricity":0.0019428,"inclination_deg":49.9929,"raan_deg":119.1629,"arg_perigee_deg":297.4483,"mean_anomaly_deg":62.4479,"bstar":0.00012517,"rev_number":23413,"period_min":97.191620979147,"perigee_km":610.64502801378,"apogee_km":637.85350008136,"semimajor_km":7002.3862640476,"source":"CELESTRAK","updated_at":"2026-09-21T09:00:08.721547Z"}}